Tracking 30306 objects as of 23-Apr-2025
HD Live streaming from Space Station
objects crossing your sky now

SL-14 DEB

Track SL-14 DEB now!
10-day predictions


NORAD ID: 19232
Int'l Code: 1978-100AB
Perigee: 1,678.7 km
Apogee: 1,994.5 km
Inclination: 82.3 °
Period: 123.3 minutes
Semi major axis: 8207 km
RCS: 0.0463 m2 (small)
Launch date: October 26, 1978
Source: Commonwealth of Independent States (former USSR) (CIS)
Launch site: PLESETSK MISSILE AND SPACE COMPLEX (PKMTR)

Note: This is SATELLITE DEBRIS
Your satellite tracking list
Your tracking list is empty




NASA's NSSDC Master Catalog

Two Line Element Set (TLE):
1 19232U 78100AB  25113.02024260  .00000065  00000-0  99517-3 0  9996
2 19232  82.3296 137.9943 0192400  40.9318 345.6576 11.67562341574149
Source of the keplerian elements: AFSPC